Manatee Technical College FL US WEATHERSTEM current weather conditions

sailwx.info

Wind from 005 at 5 knots gusting 13

Air temperature 22.1° C
Dewpoint 20.0° C

Last reported at 2019-Dec-12 23:40 UTC.
Time now 2019-Dec-13 00:59 UTC

Location: N 27°27' W 082°29'.
View on Google Maps.

See reports from other nearby stations

  
Tides and Currents Weather Stations Pressure Air Temp Water Temp Dewpoint Dewpoint Depression Visibility Wind Speed Wind Dir Waves Ship Positions
date/time (UTC)wind fromknots sea level pressurealtimeterstation pressurevisibilityair tempwater tempwave heightnotes
2019-Dec-12 23:40 005 5 gusting 13 22.1
2019-Dec-12 23:30 005 3 gusting 14 22.5
2019-Dec-12 23:20 005 6 gusting 13 22.7
2019-Dec-12 23:10 005 2 gusting 14 22.9
2019-Dec-12 23:00 005 8 gusting 12 23.1
2019-Dec-12 22:50 005 3 gusting 8 23.1
2019-Dec-12 22:40 005 3 gusting 12 23.1
2019-Dec-12 22:30 005 6 gusting 16 23.0
2019-Dec-12 22:20 005 8 gusting 15 23.2
2019-Dec-12 22:10 005 9 gusting 15 23.9
2019-Dec-12 22:00 005 11 gusting 14 24.1
2019-Dec-12 21:50 005 5 gusting 15 24.2
2019-Dec-12 21:40 005 5 gusting 13 24.4
2019-Dec-12 21:30 005 6 gusting 13 24.6
2019-Dec-12 21:20 005 11 gusting 13 24.6
2019-Dec-12 21:10 005 5 gusting 13 24.3
2019-Dec-12 21:00 005 6 gusting 13 24.2
2019-Dec-12 20:50 005 10 gusting 13 24.2
2019-Dec-12 20:40 005 10 gusting 13 24.2
2019-Dec-12 20:30 005 10 gusting 14 24.2
2019-Dec-12 20:20 005 6 gusting 15 24.2
2019-Dec-12 20:10 005 5 gusting 13 24.3
2019-Dec-12 20:00 005 4 gusting 13 24.3
2019-Dec-12 19:50 005 7 gusting 14 24.3
2019-Dec-12 19:40 005 8 gusting 16 24.9
2019-Dec-12 19:30 005 5 gusting 19 25.6
2019-Dec-12 19:20 005 14 gusting 14 26.1
2019-Dec-12 19:10 005 6 gusting 14 25.9
2019-Dec-12 19:00 005 6 gusting 14 26.0
2019-Dec-12 18:50 005 9 gusting 13 25.9
2019-Dec-12 18:40 005 8 gusting 15 25.7
2019-Dec-12 18:30 005 6 gusting 14 25.5
2019-Dec-12 18:20 005 7 gusting 15 25.3
2019-Dec-12 18:10 005 5 gusting 15 25.3
2019-Dec-12 18:00 005 5 gusting 16 25.3
2019-Dec-12 17:50 005 9 gusting 15 25.3
2019-Dec-12 17:40 005 10 gusting 17 25.4
2019-Dec-12 17:30 005 8 gusting 18 25.6
2019-Dec-12 17:20 005 7 gusting 18 25.3
2019-Dec-12 17:10 005 6 gusting 17 25.2
2019-Dec-12 17:00 005 7 gusting 13 24.7
2019-Dec-12 16:50 005 12 gusting 18 24.8
2019-Dec-12 16:40 005 13 gusting 19 24.5
2019-Dec-12 16:30 005 6 gusting 19 24.4
2019-Dec-12 16:20 005 10 gusting 14 24.4
2019-Dec-12 16:10 005 7 gusting 16 24.3
2019-Dec-12 16:00 005 7 gusting 15 24.1
2019-Dec-12 15:50 005 11 gusting 15 23.8
2019-Dec-12 15:40 005 8 gusting 16 23.5
2019-Dec-12 15:30 005 12 gusting 13 23.6
2019-Dec-12 15:20 005 9 gusting 16 23.3
2019-Dec-12 15:10 005 11 gusting 13 23.1
2019-Dec-12 15:00 005 11 gusting 14 22.7
2019-Dec-12 14:50 005 13 gusting 13 22.3
2019-Dec-12 14:40 005 8 gusting 13 21.9
2019-Dec-12 14:30 005 10 gusting 13 21.7
2019-Dec-12 14:20 005 8 gusting 15 21.4
2019-Dec-12 14:10 005 7 gusting 13 21.3
2019-Dec-12 14:00 005 8 gusting 13 20.9
2019-Dec-12 13:50 005 8 gusting 13 20.7
2019-Dec-12 13:40 005 6 gusting 13 20.4
2019-Dec-12 13:30 005 11 gusting 13 20.2
2019-Dec-12 13:20 005 7 gusting 12 20.1
2019-Dec-12 13:10 005 5 gusting 11 19.8
2019-Dec-12 13:00 005 9 gusting 11 19.7
2019-Dec-12 12:50 005 3 gusting 10 19.6
2019-Dec-12 12:30 005 7 gusting 12 19.6
2019-Dec-12 12:20 005 8 gusting 12 19.6
2019-Dec-12 12:10 005 1 gusting 13 19.6
2019-Dec-12 12:00 005 7 gusting 12 19.7
2019-Dec-12 11:50 005 7 gusting 13 19.7
2019-Dec-12 11:40 005 7 gusting 13 19.7
2019-Dec-12 11:30 005 9 gusting 13 19.6
2019-Dec-12 11:20 005 5 gusting 10 19.6
2019-Dec-12 11:10 005 7 gusting 11 19.4
2019-Dec-12 11:00 005 3 gusting 11 19.4
2019-Dec-12 10:50 005 8 gusting 12 19.3
2019-Dec-12 10:40 005 5 gusting 12 19.2
2019-Dec-12 10:30 005 4 gusting 12 19.2
2019-Dec-12 10:20 005 9 gusting 12 19.2
2019-Dec-12 10:10 005 7 gusting 11 19.2
2019-Dec-12 10:00 005 6 gusting 10 19.3
2019-Dec-12 09:50 005 7 gusting 11 19.4
2019-Dec-12 09:40 005 8 gusting 13 19.4
2019-Dec-12 09:30 005 3 gusting 14 19.6
2019-Dec-12 09:20 005 3 gusting 12 19.6
2019-Dec-12 09:10 005 5 gusting 13 19.6
2019-Dec-12 09:00 005 4 gusting 10 19.6
2019-Dec-12 08:50 005 9 gusting 13 19.6
2019-Dec-12 08:40 005 6 gusting 14 19.5
2019-Dec-12 08:30 005 10 gusting 13 19.4
2019-Dec-12 08:20 005 5 gusting 17 19.3
2019-Dec-12 08:10 005 9 gusting 16 19.3
2019-Dec-12 08:00 005 13 gusting 13 19.1
2019-Dec-12 07:50 005 7 gusting 13 19.1
2019-Dec-12 07:40 005 11 gusting 15 19.0
2019-Dec-12 07:30 005 7 gusting 14 18.9
2019-Dec-12 07:20 005 5 gusting 14 18.8
2019-Dec-12 07:00 005 10 gusting 13 18.6
2019-Dec-12 06:50 005 6 gusting 14 18.5
2019-Dec-12 06:40 005 7 gusting 14 18.5
2019-Dec-12 06:30 005 6 gusting 13 18.5
2019-Dec-12 06:20 005 4 gusting 12 18.5
2019-Dec-12 06:10 005 5 gusting 12 18.6
2019-Dec-12 06:00 005 4 gusting 13 18.6
2019-Dec-12 05:50 005 8 gusting 14 18.6
2019-Dec-12 05:40 005 6 gusting 12 18.8
2019-Dec-12 05:30 005 5 gusting 18 18.8
2019-Dec-12 05:20 005 12 gusting 13 18.7
2019-Dec-12 05:10 005 11 gusting 14 18.7
2019-Dec-12 05:00 005 4 gusting 14 18.8
2019-Dec-12 04:50 005 4 gusting 16 18.8
2019-Dec-12 04:40 005 7 gusting 14 18.9
2019-Dec-12 04:30 005 12 gusting 15 18.9
2019-Dec-12 04:20 005 9 gusting 18 19.0
2019-Dec-12 04:10 005 7 gusting 13 19.1
2019-Dec-12 04:00 005 7 gusting 19 19.1
2019-Dec-12 03:50 005 9 gusting 13 19.1
2019-Dec-12 03:40 005 12 gusting 18 19.1
2019-Dec-12 03:30 005 16 gusting 19 19.1
2019-Dec-12 03:20 005 12 gusting 16 19.2
2019-Dec-12 03:10 005 8 gusting 17 19.3
2019-Dec-12 03:00 005 9 gusting 18 19.3
2019-Dec-12 02:50 005 13 gusting 16 19.3
2019-Dec-12 02:40 005 9 gusting 16 19.4
2019-Dec-12 02:30 005 12 gusting 16 19.4
2019-Dec-12 02:20 005 5 gusting 16 19.5
2019-Dec-12 02:10 005 8 gusting 18 19.6
2019-Dec-12 02:00 005 11 gusting 16 19.8
2019-Dec-12 01:50 005 10 gusting 17 19.9
2019-Dec-12 01:40 005 9 gusting 17 20.1
2019-Dec-12 01:30 005 6 gusting 19 20.3
2019-Dec-12 01:20 005 18 gusting 19 20.7
2019-Dec-12 01:10 005 9 gusting 17 21.2
2019-Dec-12 01:00 005 12 gusting 13 21.7
2019-Dec-12 00:50 005 10 gusting 13 22.2
2019-Dec-12 00:40 005 13 gusting 17 22.4
2019-Dec-12 00:30 005 9 gusting 15 22.7
2019-Dec-12 00:20 005 16 gusting 19 23.1
2019-Dec-12 00:10 005 18 gusting 22 23.6
2019-Dec-12 00:00 005 9 gusting 19 24.2
2019-Dec-11 23:50 005 8 gusting 19 24.6
2019-Dec-11 23:40 005 10 gusting 15 24.8
2019-Dec-11 23:30 005 7 gusting 11 24.9
2019-Dec-11 23:20 005 5 gusting 11 24.8
2019-Dec-11 23:10 005 4 gusting 7 24.6
2019-Dec-11 23:00 005 2 gusting 4 24.7
2019-Dec-11 22:50 005 3 gusting 3 24.9
2019-Dec-11 22:40 005 2 gusting 3 25.1
2019-Dec-11 22:30 005 1 gusting 4 25.3
2019-Dec-11 22:20 005 2 gusting 4 25.4
2019-Dec-11 22:10 005 3 gusting 5 25.4
2019-Dec-11 22:00 005 2 gusting 5 25.5
2019-Dec-11 21:50 005 3 gusting 4 25.4
2019-Dec-11 21:40 005 4 gusting 6 25.4
2019-Dec-11 21:30 005 3 gusting 6 25.4
2019-Dec-11 21:20 005 5 gusting 7 25.4
2019-Dec-11 21:10 005 3 gusting 7 25.6
2019-Dec-11 21:00 005 7 gusting 11 25.6
2019-Dec-11 20:50 005 9 gusting 13 25.7
2019-Dec-11 20:40 005 10 gusting 11 26.0
2019-Dec-11 20:30 005 6 gusting 11 26.2
2019-Dec-11 20:20 005 5 gusting 10 26.3
2019-Dec-11 20:10 005 6 gusting 12 26.4
2019-Dec-11 20:00 005 8 gusting 12 26.7
2019-Dec-11 19:50 005 8 gusting 12 27.1
2019-Dec-11 19:40 005 9 gusting 12 27.3
2019-Dec-11 19:30 005 6 gusting 9 27.7
2019-Dec-11 19:20 005 4 gusting 8 27.6
2019-Dec-11 19:10 005 9 gusting 10 27.6
2019-Dec-11 19:00 005 5 gusting 7 27.9
2019-Dec-11 18:50 005 2 gusting 8 27.6
2019-Dec-11 18:40 005 5 gusting 7 27.1
2019-Dec-11 18:30 005 4 gusting 8 26.5
2019-Dec-11 18:20 005 2 gusting 7 26.4
2019-Dec-11 18:10 005 5 gusting 5 26.4
2019-Dec-11 18:00 005 2 gusting 5 26.3
2019-Dec-11 17:50 005 4 gusting 7 26.6
2019-Dec-11 17:40 005 4 gusting 7 26.8
2019-Dec-11 17:30 005 7 gusting 9 27.3
2019-Dec-11 17:20 005 2 gusting 7 27.5
2019-Dec-11 17:10 005 4 gusting 6 28.4
2019-Dec-11 17:00 005 3 gusting 5 28.8
2019-Dec-11 16:50 005 1 gusting 3 28.1
2019-Dec-11 16:40 005 1 gusting 4 27.9
2019-Dec-11 16:30 005 1 gusting 2 27.7
2019-Dec-11 16:20 005 0 gusting 3 26.9
2019-Dec-11 16:00 005 1 gusting 4 25.9
2019-Dec-11 15:50 005 1 gusting 5 25.4
2019-Dec-11 15:40 005 3 gusting 3 24.7
2019-Dec-11 15:30 24.0
2019-Dec-11 15:20 23.5
2019-Dec-11 15:10 23.2
2019-Dec-11 15:00 005 1 gusting 4 23.1
2019-Dec-11 14:50 005 0 gusting 1 23.1
2019-Dec-11 14:40 23.0
2019-Dec-11 14:30 22.6
2019-Dec-11 14:20 005 0 gusting 2 22.3
2019-Dec-11 14:10 21.9
2019-Dec-11 14:00 005 0 gusting 0 21.6
2019-Dec-11 13:50 21.3
2019-Dec-11 13:40 21.1
2019-Dec-11 13:30 20.8
2019-Dec-11 13:20 20.7
2019-Dec-11 13:10 005 0 gusting 2 20.4
2019-Dec-11 13:00 005 1 gusting 2 20.1
2019-Dec-11 12:50 005 0 gusting 2 19.9
2019-Dec-11 12:40 19.8
2019-Dec-11 12:30 19.8
2019-Dec-11 12:20 19.8
2019-Dec-11 12:10 19.8
2019-Dec-11 12:00 005 0 gusting 1 19.9
2019-Dec-11 11:50 19.9
2019-Dec-11 11:30 20.2
2019-Dec-11 11:20 20.3
2019-Dec-11 11:10 20.4
2019-Dec-11 11:00 20.4
2019-Dec-11 10:50 005 0 gusting 0 20.5
2019-Dec-11 10:40 20.5
2019-Dec-11 10:30 20.6
2019-Dec-11 10:20 005 1 gusting 1 20.6
2019-Dec-11 10:10 20.7
2019-Dec-11 10:00 20.8
2019-Dec-11 09:50 20.8
2019-Dec-11 09:40 20.8
2019-Dec-11 09:30 20.8
2019-Dec-11 09:20 20.8
2019-Dec-11 09:10 20.8
2019-Dec-11 09:00 005 2 gusting 4 20.9
2019-Dec-11 08:50 005 1 gusting 2 21.0
2019-Dec-11 08:40 005 1 gusting 3 21.1
2019-Dec-11 08:30 005 0 gusting 2 21.1
2019-Dec-11 08:20 005 0 gusting 1 21.1
2019-Dec-11 08:10 005 1 gusting 2 21.1
2019-Dec-11 08:00 005 0 gusting 2 21.2
2019-Dec-11 07:50 005 1 gusting 2 21.3
2019-Dec-11 07:40 005 0 gusting 4 21.3
2019-Dec-11 07:30 005 3 gusting 4 21.4
2019-Dec-11 07:20 005 1 gusting 2 21.3
2019-Dec-11 07:10 005 0 gusting 3 21.4
2019-Dec-11 07:00 005 1 gusting 4 21.3
2019-Dec-11 06:50 005 1 gusting 2 21.2
2019-Dec-11 06:40 21.3
2019-Dec-11 06:30 21.3
2019-Dec-11 06:20 21.3
2019-Dec-11 06:10 21.5
2019-Dec-11 06:00 21.6
2019-Dec-11 05:50 21.7
2019-Dec-11 05:40 005 1 gusting 2 21.7
2019-Dec-11 05:30 005 0 gusting 2 21.8
2019-Dec-11 05:20 21.8
2019-Dec-11 05:10 21.9
2019-Dec-11 05:00 005 1 gusting 3 22.0
2019-Dec-11 04:50 005 22.2
2019-Dec-11 04:40 005 22.2
2019-Dec-11 04:30 22.3
2019-Dec-11 04:20 22.3
2019-Dec-11 04:10 22.4
2019-Dec-11 04:00 22.5
2019-Dec-11 03:50 005 22.7
2019-Dec-11 03:40 005 0 gusting 2 22.8
2019-Dec-11 03:30 005 0 gusting 2 22.8
2019-Dec-11 03:20 22.8
2019-Dec-11 03:10 22.9
2019-Dec-11 03:00 23.0
2019-Dec-11 02:50 23.1
2019-Dec-11 02:40 23.1
2019-Dec-11 02:30 23.2
2019-Dec-11 02:20 23.3
2019-Dec-11 02:10 23.4
2019-Dec-11 02:00 23.5
2019-Dec-11 01:50 23.7
2019-Dec-11 01:40 23.8
2019-Dec-11 01:30 23.8
2019-Dec-11 01:20 005 0 gusting 2 23.9
2019-Dec-11 01:10 24.1
2019-Dec-11 01:00 005 0 gusting 2 24.2
2019-Dec-11 00:50 005 0 gusting 3 24.3
2019-Dec-11 00:40 005 1 gusting 3 24.5
2019-Dec-11 00:30 005 0 gusting 4 24.6
2019-Dec-11 00:20 005 1 gusting 4 24.8
2019-Dec-11 00:10 005 3 gusting 4 24.9
2019-Dec-11 00:00 005 1 gusting 5 25.1